Easton, MD

1:51 PM EDT on July 25, 2017 (GMT -0400)
Easton / Newnam

Weather History for KESN - August, 2013

Change the Weather History Date:

Wednesday, August 28, 2013

  Actual Average Record
Temperature  
Mean Temperature 80 °F -  
Max Temperature 89 °F 86 °F 97 °F (1948)
Min Temperature 71 °F 65 °F 50 °F (1963)
Cooling Degree Days 15    
Growing Degree Days 30 (Base 50)    
Moisture  
Dew Point 74 °F    
Average Humidity 96    
Maximum Humidity 100    
Minimum Humidity 59    
Precipitation  
Precipitation 0.00 in - - ()
Sea Level Pressure  
Sea Level Pressure 29.91 in    
Wind  
Wind Speed 1 mph (West)    
Max Wind Speed 7 mph    
Max Gust Speed -    
Visibility 5 miles    
Events Rain    
Averages and records for this station are not official NWS values.
T = Trace of Precipitation, MM = Missing Value Source: NWS Daily Summary

Daily Weather History Graph

Daily Weather History Graph

Search for Another Location

Airport or City:

Trip Planner

Search our weather history database for the weather conditions in past years. The results will help you decide how hot, cold, wet, or windy it might be!

Date:

Astronomy

Aug. 28, 2013 Rise Set
Actual Time 6:29 AM EDT 7:40 PM EDT
Civil Twilight 6:02 AM EDT 8:07 PM EDT
Nautical Twilight 5:29 AM EDT 8:40 PM EDT
Astronomical Twilight 4:55 AM EDT 9:14 PM EDT
Moon No Moon Rise 2:14 PM EDT (8/28)
Length of Visible Light 14h 05m
Length of Day
13h 10m
Waning Gibbous, 47% of the Moon is Illuminated
Aug 28
Waning Gibbous
Sep 5
New
Sep 12
First Quarter
Sep 19
Full
Sep 26
Last Quarter

Hourly Weather History & Observations

Time (EDT) Temp. Heat Index Dew Point Humidity Pressure Visibility Wind Dir Wind Speed Gust Speed Precip Events Conditions
12:14 AM 75.2 °F - 75.2 °F 100% 29.95 in 7.0 mi Calm Calm - N/A   Scattered Clouds
12:34 AM 73.8 °F - 73.8 °F 100% 29.95 in 5.0 mi Calm Calm - N/A   Clear
12:54 AM 73.6 °F - 73.6 °F 100% 29.95 in 5.0 mi Calm Calm - N/A   Clear
1:14 AM 73.8 °F - 73.8 °F 100% 29.94 in 5.0 mi Calm Calm - N/A   Clear
1:34 AM 73.4 °F - 73.4 °F 100% 29.94 in 5.0 mi Calm Calm - N/A   Clear
1:54 AM 72.7 °F - 72.7 °F 100% 29.93 in 3.0 mi Calm Calm - N/A   Clear
2:14 AM 72.7 °F - 72.7 °F 100% 29.93 in 5.0 mi Calm Calm - N/A   Clear
2:34 AM 73.0 °F - 73.0 °F 100% 29.92 in 5.0 mi Calm Calm - N/A   Clear
2:54 AM 72.7 °F - 72.7 °F 100% 29.91 in 4.0 mi Calm Calm - N/A   Clear
3:14 AM 72.3 °F - 72.3 °F 100% 29.91 in 4.0 mi Calm Calm - N/A   Clear
3:34 AM 71.6 °F - 71.6 °F 100% 29.90 in 4.0 mi Calm Calm - N/A   Clear
3:54 AM 72.9 °F - 72.9 °F 100% 29.90 in 3.0 mi Calm Calm - N/A   Clear
4:14 AM 72.7 °F - 72.7 °F 100% 29.90 in 5.0 mi Calm Calm - N/A   Clear
4:34 AM 72.5 °F - 72.5 °F 100% 29.90 in 3.0 mi Calm Calm - N/A   Clear
4:54 AM 72.7 °F - 72.7 °F 100% 29.90 in 4.0 mi Calm Calm - N/A   Clear
5:14 AM 73.4 °F - 73.4 °F 100% 29.90 in 3.0 mi Calm Calm - N/A   Clear
5:34 AM 73.0 °F - 73.0 °F 100% 29.90 in 4.0 mi Calm Calm - N/A   Clear
5:54 AM 73.4 °F - 73.4 °F 100% 29.91 in 4.0 mi Calm Calm - N/A   Clear
5:55 AM 73.4 °F - 73.4 °F 100% 29.90 in 3.0 mi NW 3.5 mph - N/A   Mostly Cloudy
6:14 AM 73.2 °F - 73.2 °F 100% 29.90 in 4.0 mi Calm Calm - N/A   Clear
6:35 AM 72.5 °F - 72.5 °F 100% 29.91 in 3.0 mi Calm Calm - N/A   Clear
6:55 AM 72.9 °F - 72.9 °F 100% 29.91 in 3.0 mi Calm Calm - N/A   Clear
7:15 AM 73.4 °F - 73.4 °F 100% 29.93 in 4.0 mi Calm Calm - N/A   Clear
7:35 AM 73.8 °F - 73.8 °F 100% 29.92 in 4.0 mi Calm Calm - N/A   Clear
7:42 AM 74.3 °F - 74.3 °F 100% 29.93 in 4.0 mi Calm Calm - N/A   Clear
7:53 AM 73.4 °F - 73.4 °F 100% 29.93 in 5.0 mi West 4.6 mph - N/A   Overcast
8:53 AM 77.0 °F - 77.0 °F 100% 29.93 in 6.0 mi West 4.6 mph - N/A   Overcast
9:53 AM 77.0 °F - 77.0 °F 100% 29.94 in 4.0 mi West 5.8 mph - N/A Rain Light Rain
10:53 AM 78.8 °F - 78.8 °F 100% 29.94 in 6.0 mi West 6.9 mph - N/A   Overcast
11:53 AM 82.4 °F 89.5 °F 75.2 °F 79% 29.93 in 6.0 mi West 6.9 mph - N/A   Haze
11:55 AM 83.5 °F 91.2 °F 75.0 °F 76% 29.93 in 10.0 mi Calm Calm - N/A   Clear
12:15 PM 83.1 °F 90.1 °F 74.5 °F 75% 29.93 in 10.0 mi Calm Calm - N/A   Clear
12:16 PM 83.1 °F 90.1 °F 74.5 °F 75% 29.93 in 10.0 mi Calm Calm - N/A   Clear
12:53 PM 84.2 °F 90.9 °F 73.4 °F 70% 29.91 in 10.0 mi West 6.9 mph - N/A   Mostly Cloudy
1:53 PM 89.6 °F 98.2 °F 73.4 °F 59% 29.89 in 10.0 mi West 5.8 mph - N/A   Mostly Cloudy
2:50 PM 82.4 °F 88.2 °F 73.4 °F 74% 29.88 in 10.0 mi West 5.8 mph - N/A   Overcast
3:50 PM 73.4 °F - 73.4 °F 100% 29.89 in 2.0 mi WSW 5.8 mph - N/A Rain Light Rain
4:50 PM 75.2 °F - 75.2 °F 100% 29.87 in 2.5 mi WSW 5.8 mph - N/A   Overcast
5:45 PM 77.0 °F - 77.0 °F 100% 29.87 in 6.0 mi West 5.8 mph - N/A   Overcast
6:45 PM 75.2 °F - 75.2 °F 100% 29.87 in 7.0 mi WSW 6.9 mph - N/A   Overcast
7:50 PM 73.4 °F - 73.4 °F 100% 29.89 in 6.0 mi WSW 5.8 mph - N/A Rain Light Rain
8:50 PM 73.4 °F - 73.4 °F 100% 29.88 in 7.0 mi WSW 5.8 mph - N/A   Overcast
10:56 PM 72.0 °F - 72.0 °F 100% 29.88 in 5.0 mi Calm Calm - N/A   Mostly Cloudy
11:16 PM 71.6 °F - 71.6 °F 100% 29.87 in 7.0 mi Calm Calm - N/A   Scattered Clouds
11:36 PM 71.2 °F - 71.2 °F 100% 29.88 in 5.0 mi Calm Calm - N/A   Scattered Clouds
11:57 PM 71.8 °F - 71.8 °F 100% 29.88 in 5.0 mi Calm Calm - N/A   Mostly Cloudy